DELTA 1 DEB

基本信息
目录编号:
21496
目录名称:
DELTA 1 DEB
国际标识:
1975-052FR
轨道中心:
EARTH
物体状态:
在轨
发射日期:
1975-06-12 UTC
轨道信息
数据来源: 国际轨道数据
星历时间: 2026-09-11T11:20:28+0800
半长轴: 7709.065km
偏心率: 0.034012
轨道倾角: 99.814°
近地点辐角: 207.733°
升交点赤经: 117.651°
平近点角: 307.967°
近地点: 1068.727km
远地点: 1593.129km
周期: 112.270分钟
每日圈数: 12.826267
详细信息
发射场:
AFWTR
轨道高度:
LEO
数据来源:
AOE Integration Group
参考系:
TEME
时间系统:
UTC
历元类型:
SGP4
2D轨道图
3D轨道图
轨道高度分析图
轨道倾角分析图
轨道综合分析图
查看轨道综合分析图